Regional Weather Roundup
Issued by NWS Cleveland, OH

Home | Current Version | Previous Version | Text Only | Print | Product List | Glossary On
Versions: 1 2 3 4 5 6 7 8 9 10 11 12 13 14 15 16 17 18 19 20 21 22 23 24 25 26 27 28 29 30 31 32 33 34 35 36 37 38 39 40 41 42 43 44 45 46 47 48 49 50
520
ASUS41 KCLE 240912
RWRCLE
OHIO REGIONAL WEATHER ROUNDUP
NATIONAL WEATHER SERVICE WILMINGTON, OH
500 AM EDT THU AUG 24 2017

NOTE: "FAIR" INDICATES FEW OR NO CLOUDS BELOW 12,000 FEET WITH NO
SIGNIFICANT WEATHER AND/OR OBSTRUCTIONS TO VISIBILITY.

OHZ001>008-015>018-024>027-034-035-043-044-241000-
   NORTHWEST OHIO

CITY           SKY/WX    TMP DP  RH WIND       PRES   REMARKS
DEFIANCE       FAIR      53  49  86 N5        30.05R
FINDLAY        FAIR      55  50  83 W6        30.02R
TOLEDO EXPRESS FAIR      55  52  89 NW6       30.03R
TOLEDO EXEC    FAIR      60  50  69 N7        30.03R
LIMA           FAIR      53  51  93 NW5       30.04R
$$

OHZ009>014-019>023-028>033-038-089-241000-
   NORTHEAST OHIO

CITY           SKY/WX    TMP DP  RH WIND       PRES   REMARKS
CLE-HOPKINS    MOCLDY    61  57  87 CALM      30.00S
CLE-LAKEFRONT  LGT RAIN  67  57  70 SE5       29.97S
CUY CO. ARPT   NOT AVBL
LORAIN-ELYRIA  FAIR      57  52  83 CALM      29.99S
ASHTABULA      MOCLDY    53  53 100 CALM      30.01S
AKRON-CANTON   FAIR      56  52  86 CALM      29.99S
WOOSTER        FAIR      50  50 100 CALM      30.00S
MANSFIELD      FAIR      55  52  89 W6        30.01S
YOUNGSTOWN     CLOUDY    59  56  89 NE5       29.99F
$$

OHZ042-051>053-060>062-070>072-077>081-241000-
  SOUTHWEST OHIO

CITY           SKY/WX    TMP DP  RH WIND       PRES   REMARKS
CINC-COVINGTON FAIR      60  56  86 N6        30.03S
CINC-LUNKEN    FAIR      55  55 100 CALM      30.04S FOG
HAMILTON       FAIR      53  52  96 CALM      30.05R
DAYTON         FAIR      55  51  86 NW7       30.05S
WRIGHT-PAT AFB FAIR      53  53 100 CALM      30.03S
DAYTON GENERAL FAIR      58  51  78 N6        30.03S
WILMINGTON     FAIR      54  54 100 CALM      30.03S
$$

OHZ036-037-039>041-045>050-054>059-063>069-073>076-082>088-241000-
  CENTRAL AND SOUTHEAST OHIO

CITY           SKY/WX    TMP DP  RH WIND       PRES   REMARKS
COLUMBUS       FAIR      58  54  86 CALM      30.01S
OSU AIRPORT    FAIR      55  53  93 NW8       30.01S
BOLTON FIELD   FAIR      56  52  89 NW5       30.02S
RICKENBACK AFB FAIR      56  55  96 SW3       30.01S
NEWARK         FAIR      55  53  93 CALM      30.00F
MARION         FAIR      54  50  86 W5        30.01F
LANCASTER      FAIR      53  52  96 CALM      30.01S
ZANESVILLE     FAIR      57  55  93 CALM      29.99F
NEW PHILLY     FOG       58  57  97 CALM      29.99F VSB 3/4
$$




USA.gov is the U.S. government's official web portal to all federal, state and local government web resources and services.